Temperature
11 12 11 11 11 9 9 9 9 9 9 10 9 8 9 9 9 9 9 8 8 8 7 7 6 6 5 5 5 4 4 4 4 4 4 4 3 3 3 3 2 2 1 1
10 10 9 9 9 9 9 9 8 9 9 9 8 8 8 8 8 8 8 8 7 7 6 5 5 5 4 4 4 4 4 4 3 3 3 3 3 3 2 2 1 1 1 0
8 9 9 8 9 9 8 7 8 8 8 7 6 7 8 8 8 8 7 7 6 5 5 5 4 4 4 4 4 3 3 3 3 3 3 2 2 2 1 1 1 0 -0 -1
7 8 9 10 10 9 8 8 7 7 7 6 7 8 8 8 8 7 6 6 5 5 4 4 4 3 3 3 3 3 3 3 2 2 2 2 1 1 1 0 -1 -1 -1 -2
6 7 7 8 8 8 8 8 7 6 6 7 7 7 7 7 7 6 5 5 4 4 4 4 3 3 3 3 3 3 2 2 2 1 1 1 1 0 -0 -1 -1 -2 -2 -3
5 6 7 9 9 9 8 8 7 6 5 6 6 5 5 7 6 5 5 4 4 4 4 3 3 3 3 3 2 2 2 1 1 1 0 -0 -0 -1 -1 -2 -3 -3 -3 -3
5 6 7 8 9 9 8 8 7 7 7 6 5 5 6 5 5 4 4 4 3 3 3 3 2 2 2 2 2 1 1 1 1 0 -1 -1 -1 -2 -3 -3 -4 -4 -4 -4
5 5 7 8 7 7 7 7 7 7 7 7 6 5 5 4 4 4 3 3 3 3 3 3 2 2 2 1 1 1 0 0 0 -0 -1 -2 -2 -2 -3 -4 -5 -5 -5 -5
7 7 7 7 8 8 8 7 7 7 6 6 5 5 4 4 3 3 3 3 2 2 2 2 2 1 1 1 0 -0 -0 -0 -1 -1 -1 -2 -3 -4 -4 -5 -6 -6 -6 -6
5 5 6 6 7 7 7 7 7 6 5 5 4 4 3 3 3 3 2 2 2 2 2 2 2 1 1 0 -0 -1 -1 -1 -1 -2 -2 -3 -4 -5 -5 -6 -6 -7 -6 -6
4 5 5 5 6 6 6 6 5 5 4 4 3 3 3 2 2 2 2 2 1 1 1 1 1 1 0 -0 -1 -1 -2 -2 -2 -3 -3 -4 -5 -5 -6 -6 -6 -6 -6 -6
5 5 4 5 6 6 6 5 4 4 3 3 3 2 2 2 2 2 2 1 1 1 1 0 0 0 -0 -1 -2 -2 -3 -3 -3 -4 -4 -5 -6 -6 -6 -6 -6 -6 -6 -6
6 6 6 6 6 5 5 4 3 3 3 3 2 2 2 2 2 1 1 1 0 0 0 -0 -0 -1 -1 -2 -2 -3 -3 -4 -4 -5 -5 -6 -7 -7 -7 -6 -6 -6 -6 -6
5 5 5 5 4 4 4 3 3 3 2 2 2 2 2 2 1 1 1 1 0 -0 -0 -1 -1 -1 -2 -2 -3 -3 -4 -4 -5 -5 -6 -7 -7 -7 -7 -7 -7 -7 -6 -6
4 4 4 4 3 3 3 2 2 2 2 2 2 2 1 1 1 1 0 0 -0 -1 -1 -1 -2 -2 -2 -3 -3 -4 -4 -5 -5 -6 -7 -7 -7 -7 -7 -7 -7 -7 -7 -7
3 3 3 3 3 2 2 2 2 2 2 2 2 1 1 1 0 0 0 -0 -1 -1 -1 -2 -2 -2 -3 -3 -4 -4 -5 -5 -6 -7 -7 -7 -7 -7 -8 -8 -8 -8 -7 -7
2 2 2 2 2 2 2 2 2 2 1 1 1 1 0 0 0 -0 -0 -1 -2 -2 -2 -2 -2 -3 -3 -3 -4 -5 -5 -6 -6 -7 -7 -7 -8 -8 -8 -8 -8 -8 -8 -8
3 2 2 2 2 2 2 2 1 1 1 1 0 0 -0 -0 -1 -1 -1 -2 -2 -2 -2 -2 -3 -3 -3 -4 -5 -5 -6 -6 -7 -7 -8 -8 -8 -8 -8 -8 -8 -8 -8 -8
2 2 2 2 1 1 1 1 1 1 0 -0 -0 -1 -1 -1 -1 -2 -2 -2 -3 -2 -2 -3 -3 -4 -4 -5 -5 -6 -6 -7 -7 -7 -8 -8 -8 -8 -8 -8 -8 -8 -8 -8
1 1 1 1 1 1 1 0 0 -0 -0 -1 -1 -1 -1 -1 -2 -2 -3 -3 -3 -3 -3 -4 -4 -4 -5 -5 -6 -6 -7 -7 -8 -8 -8 -8 -9 -9 -9 -9 -9 -8 -8 -8
1 1 1 1 1 0 0 -0 -1 -1 -1 -1 -2 -2 -2 -2 -2 -3 -4 -4 -3 -3 -4 -4 -4 -5 -5 -6 -6 -7 -7 -7 -8 -8 -8 -9 -9 -9 -9 -9 -9 -9 -9 -8
0 0 0 0 -0 -0 -0 -1 -1 -1 -2 -2 -2 -2 -3 -3 -3 -4 -4 -4 -4 -4 -5 -5 -5 -5 -6 -6 -7 -7 -7 -8 -8 -8 -9 -9 -9 -9 -9 -9 -9 -9 -9 -9
-0 -0 -0 -1 -1 -1 -1 -1 -1 -2 -2 -2 -3 -3 -3 -4 -4 -5 -5 -4 -5 -5 -5 -5 -5 -6 -6 -7 -7 -8 -8 -8 -8 -9 -9 -9 -9 -9 -9 -9 -9 -9 -9 -9
-1 -1 -1 -1 -2 -2 -2 -2 -2 -2 -3 -3 -3 -3 -4 -4 -4 -5 -5 -5 -5 -6 -6 -6 -6 -6 -7 -7 -8 -8 -8 -9 -9 -9 -9 -9 -9 -9 -9 -9 -9 -9 -9 -9
-1 -1 -2 -2 -2 -2 -2 -2 -3 -3 -3 -3 -3 -4 -4 -5 -5 -5 -5 -6 -6 -6 -6 -6 -7 -7 -7 -8 -8 -8 -9 -9 -9 -10 -10 -9 -9 -9 -9 -9 -9 -9 -9 -9
-2 -2 -2 -2 -3 -3 -3 -3 -4 -4 -4 -4 -4 -4 -5 -5 -6 -6 -6 -6 -6 -7 -7 -7 -7 -7 -8 -8 -9 -9 -9 -9 -9 -9 -9 -9 -9 -9 -9 -9 -9 -9 -9 -9
-2 -2 -3 -3 -3 -3 -4 -4 -5 -5 -5 -5 -6 -6 -6 -6 -6 -7 -7 -7 -7 -7 -8 -8 -8 -8 -9 -9 -9 -9 -10 -10 -10 -10 -10 -10 -9 -9 -9 -9 -9 -9 -9 -9
Wind_Speed
6 3 5 7 8 9 10 10 11 10 11 11 8 8 6 5 5 4 2 1 2 3 5 6 7 7 7 8 8 7 8 9 9 10 10 10 10 11 11 11 12 12 12 13
2 1 3 6 10 11 12 10 11 10 12 5 3 4 5 6 6 4 1 2 4 5 6 7 7 8 8 8 8 7 8 9 10 10 10 11 11 12 12 12 12 12 12 13
4 1 4 8 12 13 8 8 9 11 9 4 4 6 7 7 6 4 2 4 5 6 7 7 7 7 7 8 8 8 9 10 10 11 11 12 13 13 13 13 13 13 12 13
3 3 8 9 2 6 7 6 8 5 4 6 6 4 3 5 6 3 3 4 5 6 6 6 6 7 8 8 8 9 10 11 11 11 12 13 13 13 14 13 13 13 14 14
5 5 9 9 5 7 7 6 6 7 6 5 4 3 2 3 4 2 2 4 5 5 5 6 7 8 8 9 9 10 11 11 11 11 13 14 14 15 14 14 14 13 14 14
6 5 8 8 3 5 5 5 5 8 8 6 5 2 3 2 1 2 3 3 4 5 5 6 8 7 8 10 10 11 12 12 12 11 13 15 16 16 14 14 15 15 15 14
7 7 9 7 4 6 5 7 6 8 7 7 6 5 3 1 2 2 3 5 5 6 6 7 8 8 9 11 11 12 12 12 12 12 12 14 15 13 14 15 15 15 16 15
7 6 10 4 8 8 6 4 7 7 6 6 5 3 1 2 3 4 5 5 6 6 8 8 8 8 10 12 13 12 12 13 13 12 12 13 14 15 14 14 16 15 15 15
10 8 2 2 5 3 6 7 6 5 5 4 3 2 1 2 4 5 6 6 6 7 9 10 9 8 11 13 13 13 13 13 13 14 11 11 13 15 15 12 13 14 14 15
4 6 3 2 4 4 5 6 5 4 4 4 3 2 3 3 4 5 6 7 7 8 9 11 10 10 10 13 12 12 14 14 13 13 14 12 10 11 12 13 13 14 15 15
4 3 2 3 4 5 5 5 4 3 3 3 3 3 3 4 6 6 7 7 7 8 10 13 12 12 11 12 11 12 13 13 13 12 13 14 12 11 13 12 15 17 15 14
7 7 7 6 6 6 5 3 3 3 2 2 3 4 5 6 6 7 8 8 9 10 11 13 12 13 12 11 10 11 13 12 11 11 12 12 14 15 18 20 26 27 26 24
3 3 4 3 5 5 4 3 3 3 3 3 3 5 5 6 6 7 8 10 11 11 12 13 13 14 13 11 10 10 12 13 12 12 12 13 14 15 17 18 22 24 25 25
3 5 4 4 4 4 4 3 3 2 2 4 4 5 6 7 7 9 10 11 11 12 13 13 13 14 13 11 10 11 11 14 14 12 12 13 14 14 15 16 17 13 17 23
3 4 5 5 6 5 4 4 3 1 3 4 5 6 7 8 9 11 11 11 11 12 13 12 13 15 12 10 10 11 11 10 11 11 12 13 14 14 14 15 15 15 13 15
5 6 7 6 6 4 3 3 2 3 4 5 6 7 8 9 10 11 11 11 11 13 14 13 14 14 11 10 11 10 10 18 18 13 13 13 13 13 14 14 14 13 13 13
7 6 5 5 4 3 3 3 4 5 5 7 8 9 9 10 11 12 12 11 11 13 13 13 15 13 11 11 11 10 10 13 19 16 12 13 13 13 13 13 13 13 13 15
6 6 6 6 4 3 3 4 5 6 7 8 9 9 10 11 12 13 13 12 12 12 13 13 12 11 10 10 9 9 10 11 11 12 13 12 13 12 13 13 14 15 13 14
6 5 4 3 3 3 4 5 6 7 8 8 9 10 11 11 12 13 12 12 13 15 12 10 16 13 11 13 15 9 10 12 13 12 12 16 16 12 12 13 13 13 13 13
4 3 1 1 2 3 5 6 7 8 9 9 9 11 12 12 11 12 12 12 11 11 11 13 12 10 10 11 16 9 10 11 13 13 12 12 12 12 12 13 13 13 13 12
1 1 2 3 5 6 7 7 8 9 10 9 10 12 13 13 12 11 11 13 12 10 11 17 11 9 9 12 16 8 9 10 11 12 12 12 13 13 13 13 13 13 12 12
2 3 4 5 6 8 8 7 8 9 10 10 11 11 12 13 12 11 11 11 12 15 12 9 8 13 16 18 8 7 9 10 11 11 11 12 12 13 13 13 12 12 12 11
4 5 6 7 7 8 9 9 9 9 10 11 12 12 12 12 10 11 13 9 8 15 13 9 14 21 24 13 7 8 9 11 11 11 12 12 12 12 13 13 12 12 11 11
6 7 7 7 7 7 10 11 10 9 10 11 11 12 12 11 10 9 10 15 18 20 11 14 21 23 21 8 7 8 9 10 11 11 12 11 11 11 12 12 11 11 11 11
7 8 8 8 8 8 10 11 10 10 10 10 11 11 10 8 10 11 10 11 17 18 11 14 21 22 13 8 9 9 10 11 12 13 11 11 11 12 11 11 11 11 11 10
7 7 8 8 8 9 8 8 9 9 9 10 10 9 8 8 9 10 10 11 12 16 12 9 10 13 9 9 10 10 10 12 13 11 11 12 12 12 11 11 12 11 10 9
8 7 7 8 8 8 8 8 9 10 10 10 12 11 10 9 9 10 11 10 10 10 9 9 8 9 9 9 9 10 10 10 10 11 11 11 11 11 11 11 10 9 9 9
Wind_Direction
233 210 179 209 208 194 200 204 216 231 231 238 227 216 200 177 158 138 115 52 349 322 312 314 316 314 313 309 310 312 312 309 302 300 298 296 296 294 292 289 286 283 284 283
248 150 211 250 242 226 228 227 234 252 259 239 177 146 156 167 161 153 181 299 310 311 309 308 306 305 307 307 307 309 306 301 300 300 300 298 296 295 294 291 287 284 282 283
237 297 354 268 235 221 218 210 202 231 239 156 145 161 177 182 174 178 234 285 295 297 294 296 296 296 299 298 303 306 302 300 300 300 299 298 299 299 296 294 290 289 284 282
165 134 238 245 190 183 199 228 209 202 169 159 161 173 190 178 173 198 260 284 290 291 293 296 294 297 297 299 302 301 300 298 298 298 298 299 299 297 296 294 293 292 290 287
158 217 268 285 231 180 190 245 200 172 158 138 111 65 331 197 174 197 259 273 276 279 284 292 298 300 305 305 304 302 299 298 298 298 299 301 301 300 299 299 298 293 292 290
157 196 241 247 192 158 125 250 198 157 156 150 126 113 258 212 210 289 296 292 290 296 299 300 299 303 305 302 302 300 298 297 297 297 297 299 300 300 300 299 297 298 295 291
188 221 257 247 179 131 180 241 161 154 158 160 176 195 208 275 311 308 306 301 302 305 301 294 297 302 298 298 295 293 294 296 297 295 294 295 296 297 299 299 298 297 295 293
173 207 249 202 145 182 200 128 135 149 163 175 199 220 265 314 314 318 314 308 307 303 298 296 295 295 293 294 293 294 296 297 297 296 296 301 299 301 299 299 300 301 300 299
194 212 261 177 182 160 134 137 153 160 172 171 187 221 280 300 301 299 295 291 289 288 292 295 290 284 288 293 296 299 300 299 300 300 296 293 295 300 303 301 300 302 301 301
224 254 236 152 129 127 131 141 150 149 150 155 179 220 264 277 281 286 285 285 287 292 293 295 294 288 282 290 295 296 298 301 302 303 303 298 293 294 298 300 299 299 299 299
225 230 146 212 191 159 132 116 114 112 130 156 180 228 247 263 275 277 282 284 283 284 287 290 293 292 290 290 294 296 297 299 301 299 299 302 298 293 295 288 289 296 297 298
214 202 183 203 192 164 149 155 158 152 159 181 197 230 256 264 268 273 279 282 286 285 284 288 291 292 292 289 287 292 300 302 303 303 302 301 303 302 296 296 299 300 299 299
190 153 154 146 138 141 151 164 161 172 191 217 239 240 250 261 268 272 277 282 282 283 285 288 290 291 292 290 287 286 291 299 302 301 302 302 303 305 307 306 303 302 303 304
145 121 122 133 138 132 131 130 133 151 213 233 244 252 255 262 270 275 277 277 279 282 285 286 288 290 291 290 289 288 289 296 300 298 298 298 299 300 302 304 308 307 305 305
119 127 138 127 117 115 119 126 132 221 262 268 255 260 266 269 274 277 279 281 283 284 285 287 289 291 292 290 289 290 293 295 296 296 296 297 298 299 300 300 302 303 305 307
120 105 115 123 130 133 138 155 194 256 266 270 276 275 273 271 274 279 281 281 283 287 290 290 289 290 292 291 291 292 291 299 306 303 300 300 301 302 302 302 303 303 305 308
138 137 138 143 151 163 190 215 233 252 267 274 276 280 285 286 287 287 286 282 276 279 283 284 285 288 289 286 287 291 292 297 303 303 299 300 301 301 302 303 304 305 304 305
154 154 158 161 171 198 241 253 256 263 266 269 278 284 285 285 287 290 291 292 291 288 283 278 279 286 283 283 286 288 290 294 297 298 301 302 302 302 303 302 303 303 304 306
129 136 147 164 190 215 242 261 268 268 272 277 280 282 281 280 281 284 289 291 292 294 291 281 294 299 291 292 300 289 290 295 300 301 301 303 305 301 301 301 302 302 304 305
113 124 145 239 256 248 262 271 276 279 278 279 281 285 286 285 283 285 288 286 280 275 280 289 292 284 282 287 298 290 291 298 302 303 303 302 302 302 302 301 302 304 304 304
115 246 276 279 281 277 271 272 276 279 282 281 279 281 284 287 286 284 287 292 288 279 283 293 295 287 290 293 299 292 295 300 302 302 302 302 303 303 303 303 304 305 305 305
265 269 276 278 280 282 280 276 273 276 281 282 279 279 283 287 288 285 273 274 284 292 296 285 284 292 301 304 297 295 299 302 302 301 300 300 302 302 303 303 304 305 305 304
265 266 271 273 274 278 284 282 275 274 276 278 280 282 282 283 285 288 293 286 284 294 299 287 294 302 307 310 297 297 300 301 300 299 299 299 299 300 300 301 302 303 303 302
271 273 272 275 280 283 284 282 278 275 272 275 275 273 275 284 286 274 273 289 298 300 297 295 303 307 312 309 296 296 297 298 297 296 297 298 298 298 298 299 300 301 300 300
270 272 273 277 278 275 274 280 285 283 280 280 277 274 270 267 275 286 286 286 293 300 296 299 304 308 310 295 294 294 295 295 297 300 300 302 300 299 298 298 299 300 301 301
265 266 265 261 260 268 273 277 280 283 284 288 289 285 282 280 277 282 286 286 286 295 298 293 294 299 296 292 293 294 295 298 300 300 298 298 298 298 298 298 299 300 300 299
267 267 269 273 269 261 262 268 274 279 280 283 290 291 289 290 290 290 291 292 292 292 292 291 291 291 293 293 293 293 295 295 296 296 297 298 298 298 298 298 299 298 298 297
Height
1501 1500 1502 1503 1504 1508 1510 1509 1509 1503 1501 1495 1495 1496 1497 1498 1500 1501 1502 1502 1502 1502 1501 1499 1496 1493 1491 1487 1484 1480 1477 1473 1469 1464 1459 1454 1449 1444 1438 1433 1427 1421 1416 1410
1501 1501 1503 1504 1501 1501 1501 1500 1500 1497 1494 1490 1490 1492 1494 1496 1498 1499 1500 1500 1500 1499 1497 1494 1492 1489 1486 1482 1479 1475 1471 1467 1462 1457 1452 1447 1441 1435 1429 1423 1417 1411 1405 1399
1507 1504 1502 1503 1491 1490 1491 1490 1492 1492 1488 1489 1490 1491 1493 1494 1496 1497 1497 1497 1496 1495 1493 1490 1488 1485 1481 1478 1474 1470 1465 1461 1456 1450 1444 1438 1432 1426 1419 1413 1406 1400 1394 1389
1508 1505 1506 1486 1481 1481 1484 1483 1484 1484 1485 1486 1488 1490 1491 1493 1494 1495 1495 1494 1493 1491 1489 1486 1483 1480 1477 1473 1469 1464 1459 1454 1449 1443 1436 1430 1424 1417 1410 1403 1396 1390 1383 1378
1509 1507 1497 1485 1479 1479 1482 1481 1479 1481 1483 1486 1487 1489 1490 1491 1492 1492 1492 1491 1489 1487 1485 1482 1479 1475 1472 1468 1463 1458 1453 1447 1442 1436 1429 1422 1415 1408 1401 1394 1386 1380 1374 1368
1506 1504 1496 1479 1473 1473 1477 1480 1477 1478 1481 1484 1486 1491 1491 1489 1489 1489 1488 1487 1485 1483 1481 1478 1475 1471 1466 1462 1457 1452 1446 1440 1435 1429 1422 1414 1407 1399 1392 1386 1378 1371 1364 1359
1499 1497 1486 1473 1471 1473 1481 1475 1474 1476 1479 1482 1484 1486 1487 1486 1486 1485 1484 1483 1481 1479 1476 1473 1470 1465 1461 1456 1451 1445 1439 1433 1427 1421 1414 1407 1399 1391 1384 1377 1369 1362 1355 1349
1492 1494 1483 1468 1470 1472 1470 1470 1472 1475 1478 1480 1482 1482 1483 1483 1482 1482 1481 1479 1477 1474 1472 1469 1465 1460 1454 1450 1444 1438 1431 1425 1419 1412 1406 1399 1391 1383 1376 1369 1361 1353 1346 1340
1473 1470 1467 1465 1465 1466 1467 1470 1472 1475 1477 1478 1479 1479 1480 1480 1479 1478 1477 1475 1473 1470 1466 1463 1460 1455 1448 1443 1437 1430 1423 1417 1410 1403 1397 1390 1383 1375 1367 1361 1355 1347 1341 1334
1469 1465 1464 1464 1465 1466 1468 1470 1472 1473 1475 1475 1476 1477 1477 1477 1476 1475 1473 1471 1468 1464 1460 1456 1453 1448 1443 1436 1430 1423 1415 1408 1402 1395 1387 1381 1375 1368 1361 1355 1348 1342 1335 1329
1465 1463 1463 1464 1464 1466 1467 1469 1470 1471 1472 1473 1474 1474 1474 1473 1472 1471 1468 1466 1463 1459 1454 1450 1446 1441 1436 1430 1423 1415 1408 1401 1394 1387 1380 1372 1366 1361 1354 1348 1344 1338 1331 1325
1459 1457 1458 1459 1461 1464 1465 1467 1468 1469 1470 1471 1471 1471 1471 1470 1468 1466 1463 1460 1457 1453 1448 1443 1438 1433 1428 1422 1416 1408 1400 1393 1386 1379 1372 1365 1358 1351 1346 1342 1336 1331 1326 1320
1452 1453 1455 1457 1460 1462 1463 1465 1466 1467 1468 1469 1469 1468 1467 1466 1464 1461 1458 1455 1450 1446 1441 1436 1430 1425 1420 1414 1408 1401 1394 1387 1379 1373 1366 1359 1352 1345 1336 1331 1327 1322 1317 1312
1450 1452 1454 1456 1458 1460 1462 1463 1464 1465 1466 1466 1466 1464 1463 1461 1458 1455 1452 1448 1443 1438 1433 1428 1422 1417 1412 1406 1400 1393 1387 1380 1374 1366 1360 1353 1347 1340 1333 1326 1318 1312 1308 1304
1449 1451 1453 1455 1457 1458 1460 1461 1462 1463 1463 1462 1461 1460 1458 1455 1451 1448 1445 1440 1436 1430 1425 1420 1414 1408 1404 1398 1392 1385 1379 1373 1366 1359 1353 1347 1341 1335 1328 1321 1314 1307 1301 1296
1448 1449 1451 1453 1455 1457 1458 1459 1460 1459 1459 1458 1456 1454 1451 1448 1444 1440 1437 1433 1427 1421 1416 1411 1406 1401 1396 1390 1384 1378 1372 1366 1360 1353 1346 1341 1335 1328 1322 1316 1309 1303 1297 1291
1446 1448 1450 1452 1454 1455 1456 1456 1456 1455 1454 1452 1450 1448 1444 1441 1436 1432 1428 1424 1419 1414 1409 1404 1398 1393 1388 1383 1377 1370 1364 1358 1353 1347 1340 1334 1328 1322 1316 1310 1304 1298 1292 1287
1445 1447 1449 1450 1451 1452 1453 1453 1452 1451 1449 1447 1444 1441 1437 1433 1428 1424 1419 1415 1410 1405 1401 1396 1391 1385 1381 1376 1370 1364 1358 1351 1345 1340 1334 1328 1322 1316 1310 1304 1298 1292 1286 1281
1444 1446 1447 1449 1449 1449 1449 1448 1447 1445 1443 1440 1437 1433 1429 1425 1421 1416 1411 1406 1401 1395 1391 1388 1383 1378 1373 1368 1363 1357 1351 1345 1339 1333 1327 1321 1315 1310 1304 1299 1293 1287 1281 1276
1443 1445 1445 1446 1446 1446 1445 1443 1441 1439 1436 1433 1429 1425 1421 1417 1413 1408 1403 1398 1394 1390 1384 1380 1375 1370 1365 1361 1355 1349 1344 1339 1332 1326 1320 1314 1309 1303 1298 1293 1287 1282 1276 1272
1441 1442 1442 1442 1441 1441 1439 1437 1435 1432 1429 1426 1422 1418 1413 1409 1405 1400 1395 1389 1385 1382 1377 1373 1368 1363 1358 1353 1348 1343 1338 1332 1326 1319 1314 1308 1303 1297 1292 1287 1282 1277 1272 1267
1439 1438 1438 1437 1436 1434 1433 1431 1428 1425 1421 1418 1414 1410 1405 1400 1396 1392 1387 1383 1378 1374 1369 1365 1361 1356 1351 1347 1341 1336 1330 1325 1319 1313 1307 1302 1297 1292 1286 1281 1277 1272 1267 1262
1435 1434 1433 1432 1430 1427 1425 1423 1420 1417 1413 1410 1406 1402 1398 1393 1389 1384 1378 1375 1371 1366 1362 1357 1353 1349 1344 1339 1334 1329 1323 1317 1312 1306 1301 1296 1291 1286 1281 1276 1272 1267 1262 1258
1430 1429 1427 1425 1423 1420 1417 1415 1412 1409 1405 1401 1398 1394 1390 1385 1380 1377 1372 1367 1363 1359 1354 1350 1346 1341 1337 1332 1326 1321 1315 1310 1305 1300 1295 1290 1285 1280 1276 1271 1266 1262 1258 1253
1424 1422 1421 1419 1416 1413 1410 1407 1403 1400 1396 1392 1389 1385 1382 1378 1373 1368 1364 1360 1355 1351 1346 1342 1338 1334 1329 1324 1319 1313 1308 1303 1298 1294 1289 1284 1279 1275 1270 1266 1262 1257 1253 1249
1418 1416 1414 1411 1409 1406 1403 1399 1395 1391 1388 1383 1379 1376 1373 1369 1365 1360 1356 1351 1347 1343 1338 1334 1330 1325 1321 1316 1311 1306 1301 1296 1292 1287 1282 1278 1273 1269 1265 1261 1257 1253 1249 1245
1410 1408 1406 1403 1401 1398 1395 1391 1387 1383 1380 1376 1371 1367 1364 1360 1356 1352 1348 1343 1339 1334 1330 1326 1322 1317 1313 1308 1304 1299 1294 1290 1285 1281 1276 1272 1268 1264 1260 1256 1252 1248 1245 1242